Wetterdaten: Dienstag, 16.09.2014
Datum Zeit Temp. A. Feuchte A. Luftdruck Regen Wind Richtung Richtung Sonnenschein ET UV Solar Taupunkt Windchill Windben Empfang
16.09.2014 00:00 13,5 C 89 % 1014,4 hPa 0,0 l/m 1,4 km/h (1 Bft) O-NO 70 0 min 0,000 mm 0,0 UV-I 0 W/m 11,7 C 13,5 C 4,0 km/h (1 Bft) 0,00 %
16.09.2014 00:15 13,7 C 88 % 1014,1 hPa 0,0 l/m 0,4 km/h (0 Bft) N-NW 342 0 min 0,000 mm 0,0 UV-I 0 W/m 11,7 C 13,7 C 4,0 km/h (1 Bft) 0,00 %
16.09.2014 00:30 13,6 C 89 % 1014,1 hPa 0,0 l/m 0,4 km/h (0 Bft) NO 46 0 min 0,000 mm 0,0 UV-I 0 W/m 11,8 C 13,6 C 4,0 km/h (1 Bft) 0,00 %
16.09.2014 00:45 13,4 C 89 % 1013,9 hPa 0,0 l/m 2,9 km/h (1 Bft) O-SO 112 0 min 0,000 mm 0,0 UV-I 0 W/m 11,6 C 13,4 C 4,0 km/h (1 Bft) 0,00 %
16.09.2014 01:00 13,3 C 89 % 1014,1 hPa 0,0 l/m 0,0 km/h (0 Bft) SO 136 0 min 0,000 mm 0,0 UV-I 0 W/m 11,5 C 13,3 C 0,0 km/h (0 Bft) 0,00 %
16.09.2014 01:15 13,4 C 89 % 1013,9 hPa 0,0 l/m 0,0 km/h (0 Bft) O-NO 58 0 min 0,000 mm 0,0 UV-I 0 W/m 11,6 C 13,4 C 0,0 km/h (0 Bft) 0,00 %
16.09.2014 01:30 13,5 C 89 % 1013,9 hPa 0,0 l/m 6,5 km/h (2 Bft) O 101 0 min 0,000 mm 0,0 UV-I 0 W/m 11,7 C 13,5 C 7,9 km/h (2 Bft) 0,00 %
16.09.2014 01:45 13,3 C 89 % 1013,8 hPa 0,0 l/m 0,0 km/h (0 Bft) SO 134 0 min 0,000 mm 0,0 UV-I 0 W/m 11,5 C 13,3 C 0,0 km/h (0 Bft) 0,00 %
16.09.2014 02:00 13,3 C 89 % 1013,9 hPa 0,0 l/m 0,0 km/h (0 Bft) O-NO 60 0 min 0,000 mm 0,0 UV-I 0 W/m 11,5 C 13,3 C 0,0 km/h (0 Bft) 0,00 %
16.09.2014 02:15 13,1 C 89 % 1014,2 hPa 0,0 l/m 1,4 km/h (1 Bft) SO 132 0 min 0,000 mm 0,0 UV-I 0 W/m 11,3 C 13,1 C 4,0 km/h (1 Bft) 0,00 %
16.09.2014 02:30 13,0 C 89 % 1014,0 hPa 0,0 l/m 2,9 km/h (1 Bft) O 83 0 min 0,000 mm 0,0 UV-I 0 W/m 11,2 C 13,0 C 4,0 km/h (1 Bft) 0,00 %
16.09.2014 02:45 13,0 C 89 % 1013,9 hPa 0,0 l/m 1,8 km/h (1 Bft) O 92 0 min 0,000 mm 0,0 UV-I 0 W/m 11,2 C 13,0 C 4,0 km/h (1 Bft) 0,00 %
16.09.2014 03:00 13,0 C 89 % 1014,0 hPa 0,0 l/m 0,7 km/h (0 Bft) S-SW 212 0 min 0,000 mm 0,0 UV-I 0 W/m 11,2 C 13,0 C 4,0 km/h (1 Bft) 0,00 %
16.09.2014 03:15 13,1 C 89 % 1013,9 hPa 0,0 l/m 4,3 km/h (1 Bft) O 91 0 min 0,000 mm 0,0 UV-I 0 W/m 11,3 C 13,1 C 7,9 km/h (2 Bft) 0,00 %
16.09.2014 03:30 13,0 C 89 % 1013,8 hPa 0,0 l/m 0,7 km/h (0 Bft) O 95 0 min 0,000 mm 0,0 UV-I 0 W/m 11,2 C 13,0 C 4,0 km/h (1 Bft) 0,00 %
16.09.2014 03:45 12,9 C 90 % 1013,8 hPa 0,0 l/m 0,4 km/h (0 Bft) O 97 0 min 0,000 mm 0,0 UV-I 0 W/m 11,3 C 12,9 C 4,0 km/h (1 Bft) 0,00 %
16.09.2014 04:00 12,8 C 91 % 1013,8 hPa 0,0 l/m 0,4 km/h (0 Bft) O-SO 113 0 min 0,000 mm 0,0 UV-I 0 W/m 11,4 C 12,8 C 4,0 km/h (1 Bft) 0,00 %
16.09.2014 04:15 12,7 C 91 % 1014,0 hPa 0,0 l/m 0,0 km/h (0 Bft) S 178 0 min 0,000 mm 0,0 UV-I 0 W/m 11,3 C 12,7 C 0,0 km/h (0 Bft) 0,00 %
16.09.2014 04:30 12,6 C 91 % 1014,2 hPa 0,0 l/m 0,0 km/h (0 Bft) S-SW 198 0 min 0,000 mm 0,0 UV-I 0 W/m 11,2 C 12,6 C 0,0 km/h (0 Bft) 0,00 %
16.09.2014 04:45 12,4 C 91 % 1014,1 hPa 0,0 l/m 0,0 km/h (0 Bft) SW 215 0 min 0,000 mm 0,0 UV-I 0 W/m 11,0 C 12,4 C 0,0 km/h (0 Bft) 0,00 %
16.09.2014 05:00 12,5 C 92 % 1014,1 hPa 0,0 l/m 0,4 km/h (0 Bft) O-SO 120 0 min 0,000 mm 0,0 UV-I 0 W/m 11,2 C 12,5 C 4,0 km/h (1 Bft) 0,00 %
16.09.2014 05:15 12,4 C 92 % 1014,2 hPa 0,0 l/m 0,0 km/h (0 Bft) S-SO 166 0 min 0,000 mm 0,0 UV-I 0 W/m 11,1 C 12,4 C 0,0 km/h (0 Bft) 0,00 %
16.09.2014 05:30 12,2 C 92 % 1014,2 hPa 0,0 l/m 0,0 km/h (0 Bft) S 177 0 min 0,000 mm 0,0 UV-I 0 W/m 10,9 C 12,2 C 0,0 km/h (0 Bft) 0,00 %
16.09.2014 05:45 11,8 C 91 % 1014,3 hPa 0,0 l/m 0,0 km/h (0 Bft) W-SW 250 0 min 0,000 mm 0,0 UV-I 0 W/m 10,4 C 11,8 C 0,0 km/h (0 Bft) 0,00 %
16.09.2014 06:00 11,1 C 92 % 1014,4 hPa 0,0 l/m 0,0 km/h (0 Bft) S 183 0 min 0,000 mm 0,0 UV-I 0 W/m 9,8 C 11,1 C 0,0 km/h (0 Bft) 0,00 %
16.09.2014 06:15 11,1 C 91 % 1014,5 hPa 0,0 l/m 0,0 km/h (0 Bft) S-SW 201 0 min 0,000 mm 0,0 UV-I 0 W/m 9,7 C 11,1 C 0,0 km/h (0 Bft) 0,00 %
16.09.2014 06:30 10,9 C 92 % 1014,6 hPa 0,0 l/m 0,0 km/h (0 Bft) SW 231 0 min 0,000 mm 0,0 UV-I 0 W/m 9,7 C 10,9 C 0,0 km/h (0 Bft) 0,00 %
16.09.2014 06:45 11,3 C 92 % 1014,8 hPa 0,0 l/m 0,0 km/h (0 Bft) W-SW 252 0 min 0,000 mm 1,0 UV-I 0 W/m 10,0 C 11,3 C 0,0 km/h (0 Bft) 0,00 %
16.09.2014 07:00 11,5 C 92 % 1014,7 hPa 0,0 l/m 0,0 km/h (0 Bft) W-SW 252 0 min 0,000 mm 1,0 UV-I 5 W/m 10,2 C 11,5 C 0,0 km/h (0 Bft) 0,00 %
16.09.2014 07:15 12,0 C 93 % 1015,0 hPa 0,0 l/m 0,0 km/h (0 Bft) S 174 0 min 0,000 mm 1,0 UV-I 7 W/m 10,9 C 12,0 C 0,0 km/h (0 Bft) 0,00 %
16.09.2014 07:30 12,1 C 92 % 1015,0 hPa 0,0 l/m 0,0 km/h (0 Bft) S 173 0 min 0,000 mm 1,0 UV-I 17 W/m 10,8 C 12,1 C 0,0 km/h (0 Bft) 0,00 %
16.09.2014 07:45 12,6 C 92 % 1015,0 hPa 0,0 l/m 0,4 km/h (0 Bft) O-SO 112 0 min 0,000 mm 1,0 UV-I 25 W/m 11,3 C 12,6 C 4,0 km/h (1 Bft) 0,00 %
16.09.2014 08:00 13,1 C 89 % 1014,9 hPa 0,0 l/m 0,0 km/h (0 Bft) O-SO 102 0 min 0,000 mm 2,0 UV-I 75 W/m 11,3 C 13,1 C 0,0 km/h (0 Bft) 0,00 %
16.09.2014 08:15 13,5 C 87 % 1015,0 hPa 0,0 l/m 0,0 km/h (0 Bft) S 174 0 min 0,000 mm 2,0 UV-I 95 W/m 11,4 C 13,5 C 0,0 km/h (0 Bft) 0,00 %
16.09.2014 08:30 14,0 C 84 % 1015,0 hPa 0,0 l/m 0,0 km/h (0 Bft) SO 134 0 min 0,000 mm 2,0 UV-I 123 W/m 11,3 C 14,0 C 0,0 km/h (0 Bft) 0,00 %
16.09.2014 08:45 14,3 C 83 % 1014,7 hPa 0,0 l/m 0,4 km/h (0 Bft) S 174 0 min 0,000 mm 3,0 UV-I 145 W/m 11,5 C 14,3 C 4,0 km/h (1 Bft) 0,00 %
16.09.2014 09:00 15,3 C 78 % 1014,7 hPa 0,0 l/m 3,2 km/h (1 Bft) O 99 0 min 0,000 mm 3,0 UV-I 184 W/m 11,5 C 15,3 C 7,9 km/h (2 Bft) 0,00 %
16.09.2014 09:15 16,1 C 76 % 1014,8 hPa 0,0 l/m 0,4 km/h (0 Bft) SO 141 0 min 0,000 mm 3,0 UV-I 187 W/m 11,9 C 16,1 C 4,0 km/h (1 Bft) 0,00 %
16.09.2014 09:30 16,2 C 74 % 1014,6 hPa 0,0 l/m 6,8 km/h (2 Bft) O-SO 118 0 min 0,000 mm 4,0 UV-I 176 W/m 11,6 C 16,0 C 7,9 km/h (2 Bft) 0,00 %
16.09.2014 09:45 17,3 C 70 % 1014,5 hPa 0,0 l/m 0,0 km/h (0 Bft) W-SW 245 0 min 0,000 mm 4,0 UV-I 229 W/m 11,8 C 17,3 C 0,0 km/h (0 Bft) 0,00 %
16.09.2014 10:00 17,8 C 68 % 1014,4 hPa 0,0 l/m 0,0 km/h (0 Bft) N-NW 347 0 min 0,000 mm 4,0 UV-I 238 W/m 11,8 C 17,8 C 0,0 km/h (0 Bft) 0,00 %
16.09.2014 10:15 18,1 C 69 % 1014,4 hPa 0,0 l/m 0,0 km/h (0 Bft) W-SW 242 0 min 0,000 mm 4,0 UV-I 289 W/m 12,3 C 18,1 C 0,0 km/h (0 Bft) 0,00 %
16.09.2014 10:30 18,0 C 69 % 1014,3 hPa 0,0 l/m 0,4 km/h (0 Bft) S 181 0 min 0,000 mm 4,0 UV-I 254 W/m 12,2 C 18,0 C 4,0 km/h (1 Bft) 0,00 %
16.09.2014 10:45 19,2 C 65 % 1014,1 hPa 0,0 l/m 0,0 km/h (0 Bft) SO 127 15 min 0,000 mm 4,0 UV-I 332 W/m 12,5 C 19,2 C 0,0 km/h (0 Bft) 0,00 %
16.09.2014 11:00 19,6 C 62 % 1013,8 hPa 0,0 l/m 0,0 km/h (0 Bft) S-SW 193 15 min 0,000 mm 4,0 UV-I 364 W/m 12,1 C 19,6 C 0,0 km/h (0 Bft) 0,00 %
16.09.2014 11:15 20,2 C 63 % 1013,6 hPa 0,0 l/m 1,8 km/h (1 Bft) O-NO 76 15 min 0,000 mm 6,0 UV-I 390 W/m 12,9 C 20,2 C 4,0 km/h (1 Bft) 0,00 %
16.09.2014 11:30 19,0 C 67 % 1013,9 hPa 0,0 l/m 0,0 km/h (0 Bft) O-NO 70 15 min 0,000 mm 5,0 UV-I 442 W/m 12,7 C 19,0 C 0,0 km/h (0 Bft) 0,00 %
16.09.2014 11:45 18,5 C 68 % 1013,8 hPa 0,0 l/m 0,0 km/h (0 Bft) W-NW 294 0 min 0,000 mm 6,0 UV-I 350 W/m 12,5 C 18,5 C 0,0 km/h (0 Bft) 0,00 %
16.09.2014 12:00 19,5 C 67 % 1013,4 hPa 0,0 l/m 1,8 km/h (1 Bft) W-NW 293 0 min 0,000 mm 6,0 UV-I 317 W/m 13,2 C 19,5 C 4,0 km/h (1 Bft) 0,00 %
16.09.2014 12:15 19,0 C 66 % 1013,5 hPa 0,0 l/m 2,2 km/h (1 Bft) SO 144 15 min 0,000 mm 6,0 UV-I 535 W/m 12,5 C 19,0 C 4,0 km/h (1 Bft) 0,00 %
16.09.2014 12:30 19,1 C 62 % 1013,5 hPa 0,0 l/m 1,4 km/h (1 Bft) O-SO 113 15 min 0,000 mm 5,0 UV-I 546 W/m 11,6 C 19,1 C 4,0 km/h (1 Bft) 0,00 %
16.09.2014 12:45 19,7 C 62 % 1013,1 hPa 0,0 l/m 0,7 km/h (0 Bft) N-NO 18 15 min 0,000 mm 5,0 UV-I 601 W/m 12,2 C 19,7 C 4,0 km/h (1 Bft) 0,00 %
16.09.2014 13:00 19,5 C 62 % 1013,1 hPa 0,0 l/m 1,4 km/h (1 Bft) O 84 15 min 0,000 mm 5,0 UV-I 640 W/m 12,0 C 19,5 C 4,0 km/h (1 Bft) 0,00 %
16.09.2014 13:15 19,7 C 62 % 1013,2 hPa 0,0 l/m 4,0 km/h (1 Bft) SO 133 15 min 0,000 mm 3,0 UV-I 635 W/m 12,2 C 19,7 C 7,9 km/h (2 Bft) 0,00 %
16.09.2014 13:30 19,9 C 61 % 1012,8 hPa 0,0 l/m 0,4 km/h (0 Bft) N-NO 27 15 min 0,000 mm 3,0 UV-I 649 W/m 12,2 C 19,9 C 4,0 km/h (1 Bft) 0,00 %
16.09.2014 13:45 20,0 C 61 % 1012,7 hPa 0,0 l/m 1,4 km/h (1 Bft) NO 52 15 min 0,000 mm 3,0 UV-I 585 W/m 12,2 C 20,0 C 4,0 km/h (1 Bft) 0,00 %
16.09.2014 14:00 20,1 C 64 % 1012,5 hPa 0,0 l/m 1,4 km/h (1 Bft) O 81 15 min 0,000 mm 2,0 UV-I 665 W/m 13,1 C 20,1 C 4,0 km/h (1 Bft) 0,00 %
16.09.2014 14:15 20,2 C 64 % 1012,4 hPa 0,0 l/m 3,2 km/h (1 Bft) O-NO 75 15 min 0,000 mm 2,0 UV-I 688 W/m 13,2 C 20,2 C 11,9 km/h (2 Bft) 0,00 %
16.09.2014 14:30 20,3 C 63 % 1012,2 hPa 0,0 l/m 0,4 km/h (0 Bft) NO 43 15 min 0,000 mm 2,0 UV-I 680 W/m 13,0 C 20,3 C 4,0 km/h (1 Bft) 0,00 %
16.09.2014 14:45 20,2 C 63 % 1012,3 hPa 0,0 l/m 0,7 km/h (0 Bft) NO 55 15 min 0,000 mm 2,0 UV-I 680 W/m 12,9 C 20,2 C 4,0 km/h (1 Bft) 0,00 %
16.09.2014 15:00 20,2 C 62 % 1012,2 hPa 0,0 l/m 14,4 km/h (3 Bft) O-SO 112 15 min 0,000 mm 2,0 UV-I 675 W/m 12,7 C 17,6 C 15,8 km/h (3 Bft) 0,00 %
16.09.2014 15:15 20,0 C 62 % 1012,0 hPa 0,0 l/m 9,4 km/h (2 Bft) O-SO 102 15 min 0,000 mm 2,0 UV-I 675 W/m 12,5 C 18,8 C 11,9 km/h (2 Bft) 0,00 %
16.09.2014 15:30 20,0 C 63 % 1012,1 hPa 0,0 l/m 2,2 km/h (1 Bft) O-NO 65 15 min 0,000 mm 2,0 UV-I 670 W/m 12,7 C 20,0 C 4,0 km/h (1 Bft) 0,00 %
16.09.2014 15:45 20,2 C 63 % 1011,8 hPa 0,0 l/m 4,0 km/h (1 Bft) O 88 15 min 0,000 mm 2,0 UV-I 665 W/m 12,9 C 20,2 C 7,9 km/h (2 Bft) 0,00 %
16.09.2014 16:00 20,2 C 62 % 1011,7 hPa 0,0 l/m 1,8 km/h (1 Bft) S-SO 153 15 min 0,000 mm 2,0 UV-I 660 W/m 12,7 C 20,2 C 4,0 km/h (1 Bft) 0,00 %
16.09.2014 16:15 20,1 C 62 % 1011,9 hPa 0,0 l/m 14,8 km/h (3 Bft) O 96 15 min 0,000 mm 1,0 UV-I 655 W/m 12,6 C 17,4 C 24,1 km/h (4 Bft) 0,00 %
16.09.2014 16:30 19,9 C 62 % 1011,9 hPa 0,0 l/m 4,3 km/h (1 Bft) S-SW 207 15 min 0,000 mm 1,0 UV-I 650 W/m 12,4 C 19,9 C 7,9 km/h (2 Bft) 0,00 %
16.09.2014 16:45 20,1 C 62 % 1011,9 hPa 0,0 l/m 11,5 km/h (2 Bft) O-SO 110 15 min 0,000 mm 1,0 UV-I 650 W/m 12,6 C 18,3 C 15,8 km/h (3 Bft) 0,00 %
16.09.2014 17:00 20,1 C 61 % 1011,8 hPa 0,0 l/m 14,0 km/h (3 Bft) O-SO 103 15 min 0,000 mm 1,0 UV-I 645 W/m 12,3 C 17,6 C 19,8 km/h (3 Bft) 0,00 %
16.09.2014 17:15 20,0 C 62 % 1011,7 hPa 0,0 l/m 4,7 km/h (1 Bft) SO 132 15 min 0,000 mm 1,0 UV-I 486 W/m 12,5 C 20,0 C 7,9 km/h (2 Bft) 0,00 %
16.09.2014 17:30 19,9 C 63 % 1011,8 hPa 0,0 l/m 13,0 km/h (3 Bft) O 90 15 min 0,000 mm 1,0 UV-I 474 W/m 12,6 C 17,6 C 15,8 km/h (3 Bft) 0,00 %
16.09.2014 17:45 19,6 C 64 % 1011,8 hPa 0,0 l/m 4,3 km/h (1 Bft) SO 131 15 min 0,000 mm 0,0 UV-I 396 W/m 12,6 C 19,6 C 11,9 km/h (2 Bft) 0,00 %
16.09.2014 18:00 19,2 C 64 % 1012,1 hPa 0,0 l/m 13,0 km/h (3 Bft) NO 36 15 min 0,000 mm 0,0 UV-I 331 W/m 12,2 C 16,8 C 19,8 km/h (3 Bft) 0,00 %
16.09.2014 18:15 18,9 C 66 % 1012,4 hPa 0,0 l/m 10,8 km/h (2 Bft) O-SO 113 15 min 0,000 mm 0,0 UV-I 253 W/m 12,4 C 17,1 C 11,9 km/h (2 Bft) 0,00 %
16.09.2014 18:30 18,4 C 67 % 1012,6 hPa 0,0 l/m 2,2 km/h (1 Bft) N-NW 338 15 min 0,000 mm 0,0 UV-I 164 W/m 12,2 C 18,4 C 11,9 km/h (2 Bft) 0,00 %
16.09.2014 18:45 17,9 C 69 % 1012,7 hPa 0,0 l/m 12,2 km/h (2 Bft) SO 141 15 min 0,000 mm 0,0 UV-I 83 W/m 12,1 C 15,5 C 15,8 km/h (3 Bft) 0,00 %
16.09.2014 19:00 17,4 C 72 % 1012,8 hPa 0,0 l/m 7,9 km/h (2 Bft) O-SO 106 0 min 0,000 mm 0,0 UV-I 15 W/m 12,3 C 16,7 C 11,9 km/h (2 Bft) 0,00 %
16.09.2014 19:15 17,0 C 72 % 1012,7 hPa 0,0 l/m 0,4 km/h (0 Bft) N-NO 32 0 min 0,000 mm 0,0 UV-I 0 W/m 11,9 C 17,0 C 4,0 km/h (1 Bft) 0,00 %
16.09.2014 19:30 16,6 C 73 % 1013,0 hPa 0,0 l/m 0,7 km/h (0 Bft) S 190 0 min 0,000 mm 0,0 UV-I 0 W/m 11,7 C 16,6 C 4,0 km/h (1 Bft) 0,00 %
16.09.2014 19:45 16,4 C 74 % 1013,4 hPa 0,0 l/m 8,3 km/h (2 Bft) O 86 0 min 0,000 mm 0,0 UV-I 0 W/m 11,8 C 15,4 C 11,9 km/h (2 Bft) 0,00 %
16.09.2014 20:00 16,1 C 75 % 1013,3 hPa 0,0 l/m 4,0 km/h (1 Bft) SO 131 0 min 0,000 mm 0,0 UV-I 0 W/m 11,7 C 16,1 C 7,9 km/h (2 Bft) 0,00 %
16.09.2014 20:15 16,1 C 75 % 1013,2 hPa 0,0 l/m 9,4 km/h (2 Bft) O 80 0 min 0,000 mm 0,0 UV-I 0 W/m 11,7 C 14,6 C 11,9 km/h (2 Bft) 0,00 %
16.09.2014 20:30 15,8 C 77 % 1013,6 hPa 0,0 l/m 1,4 km/h (1 Bft) O-SO 107 0 min 0,000 mm 0,0 UV-I 0 W/m 11,8 C 15,8 C 4,0 km/h (1 Bft) 0,00 %
16.09.2014 20:45 15,5 C 78 % 1013,5 hPa 0,0 l/m 5,4 km/h (1 Bft) SO 125 0 min 0,000 mm 0,0 UV-I 0 W/m 11,7 C 15,5 C 11,9 km/h (2 Bft) 0,00 %
16.09.2014 21:00 15,2 C 79 % 1013,4 hPa 0,0 l/m 0,0 km/h (0 Bft) O-SO 112 0 min 0,000 mm 0,0 UV-I 0 W/m 11,6 C 15,2 C 0,0 km/h (0 Bft) 0,00 %
16.09.2014 21:15 15,0 C 80 % 1013,5 hPa 0,0 l/m 1,4 km/h (1 Bft) SO 142 0 min 0,000 mm 0,0 UV-I 0 W/m 11,6 C 15,0 C 4,0 km/h (1 Bft) 0,00 %
16.09.2014 21:30 14,8 C 81 % 1013,6 hPa 0,0 l/m 5,8 km/h (2 Bft) O-NO 76 0 min 0,000 mm 0,0 UV-I 0 W/m 11,6 C 14,8 C 7,9 km/h (2 Bft) 0,00 %
16.09.2014 21:45 15,1 C 82 % 1013,2 hPa 0,0 l/m 0,0 km/h (0 Bft) N-NW 327 0 min 0,000 mm 0,0 UV-I 0 W/m 12,0 C 15,1 C 0,0 km/h (0 Bft) 0,00 %
16.09.2014 22:00 14,9 C 82 % 1013,6 hPa 0,0 l/m 1,4 km/h (1 Bft) O-SO 104 0 min 0,000 mm 0,0 UV-I 0 W/m 11,9 C 14,9 C 4,0 km/h (1 Bft) 0,00 %
16.09.2014 22:15 14,7 C 83 % 1013,6 hPa 0,0 l/m 0,7 km/h (0 Bft) O-NO 60 0 min 0,000 mm 0,0 UV-I 0 W/m 11,8 C 14,7 C 4,0 km/h (1 Bft) 0,00 %
16.09.2014 22:30 14,5 C 83 % 1013,5 hPa 0,0 l/m 3,2 km/h (1 Bft) O-NO 69 0 min 0,000 mm 0,0 UV-I 0 W/m 11,6 C 14,5 C 7,9 km/h (2 Bft) 0,00 %
16.09.2014 22:45 14,4 C 83 % 1013,7 hPa 0,0 l/m 1,4 km/h (1 Bft) S-SO 148 0 min 0,000 mm 0,0 UV-I 0 W/m 11,5 C 14,4 C 4,0 km/h (1 Bft) 0,00 %
16.09.2014 23:00 14,4 C 84 % 1013,6 hPa 0,0 l/m 2,2 km/h (1 Bft) O-SO 110 0 min 0,000 mm 0,0 UV-I 0 W/m 11,7 C 14,4 C 4,0 km/h (1 Bft) 0,00 %
16.09.2014 23:15 14,3 C 84 % 1013,6 hPa 0,0 l/m 0,7 km/h (0 Bft) SO 142 0 min 0,000 mm 0,0 UV-I 0 W/m 11,6 C 14,3 C 4,0 km/h (1 Bft) 0,00 %
16.09.2014 23:30 14,1 C 85 % 1013,5 hPa 0,0 l/m 0,0 km/h (0 Bft) O-SO 121 0 min 0,000 mm 0,0 UV-I 0 W/m 11,6 C 14,1 C 0,0 km/h (0 Bft) 0,00 %
_ Min-Zeit 06:30 13:30 16:00 - 01:00 - - - - - - 06:30 06:30 01:00 00:00
Minimum _ 10,9 C 61 % 1011,7 hPa - 0,0 km/h (0 Bft) - - - - - - 9,7 C 10,9 C 0,0 km/h (0 Bft) 0,00 %
_ Max-Zeit 14:30 07:15 07:15 00:00 16:15 - - 10:45 00:00 11:15 14:15 12:00 14:30 16:15 00:00
Maximum _ 20,3 C 93 % 1015,0 hPa 0,0 l/m 14,8 km/h
O (3 Bft)
- - 15 min 0,000 mm 6,0 UV-I 688 W/m 13,2 C 20,3 C 24,1 km/h
O (4 Bft)
0,00 %
Durchschnitt _ 16,0 C 77 % 1013,5 hPa #0,0 l/m 2,6 km/h (1 Bft) O - #7:45 h #0,000 mm 2,8 UV-I 394 W/m 11,8 C 15,8 C 5,0 km/h (1 Bft) 0,00 %